time_stamp(utc),avg(mph),gust(mph),direction(deg),12m_air_temp(f),sonic_u(cm/s),sonic_v(cm/s),sonic_w(cm/s),pressure,2m_air_temp(f),pyranometer(W/m^2)
"2016-08-22 00:00:49+00",15.8,17.8,,74.5,-471,-549,-14,1008.25,73.6,0
"2016-08-22 00:05:49+00",12.7,14.7,,74.3,-392,-444,-39,1008.23,73.3,0
"2016-08-22 00:10:49+00",9.5,11.5,,74.3,-236,-390,-27,1008.09,73.1,0
"2016-08-22 00:15:49+00",11.7,13.7,,74.2,-182,-469,-48,1007.9,73,0
"2016-08-22 00:20:49+00",12.3,16.3,,74.3,-100,-514,-33,1007.84,73.3,0
"2016-08-22 00:25:49+00",11.1,12.1,,74.2,-8,-456,-55,1007.57,73.3,0
"2016-08-22 00:30:49+00",11.5,14.5,,73.9,108,-493,-42,1007.4,73.4,0
"2016-08-22 00:35:49+00",13.6,15.6,,74,220,-569,-23,1007.39,73.6,0
"2016-08-22 00:40:49+00",12.6,17.6,,74,-12,-541,-37,1007.7,73.5,0
"2016-08-22 00:45:49+00",12.9,15.9,,74.1,87,-564,-22,1007.45,73.5,0
"2016-08-22 00:50:49+00",11.5,16.5,,74.1,-116,-486,-34,1007.66,73.4,0
"2016-08-22 00:55:49+00",11.6,13.6,,74.3,-229,-460,-28,1007.93,73.6,0
"2016-08-22 01:00:49+00",10.3,14.3,,74.3,-144,-420,-35,1008.03,73.6,0
"2016-08-22 01:05:49+00",13.6,15.6,,74.4,-234,-536,-42,1007.94,73.5,0
"2016-08-22 01:10:49+00",8.5,10.5,,74.4,-112,-336,-46,1007.96,73.6,0
"2016-08-22 01:15:49+00",8.0,9.0,,74.4,-164,-298,-29,1007.9,73.6,0
"2016-08-22 01:20:49+00",7.4,8.4,,74.4,-96,-300,-17,1007.89,73.6,0
"2016-08-22 01:25:49+00",6.2,7.2,,74.5,-155,-248,-15,1007.98,73.8,0
"2016-08-22 01:30:49+00",7.0,8.0,,74.5,-110,-268,-42,1007.94,73.7,0
"2016-08-22 01:35:49+00",7.2,9.2,,74.5,57,-281,-48,1007.61,73.7,0
"2016-08-22 01:40:49+00",6.4,8.4,,74.5,14,-251,-46,1007.56,73.7,0
"2016-08-22 01:45:49+00",7.2,8.2,,74.5,14,-284,-46,1007.76,73.6,0
"2016-08-22 01:50:49+00",8.8,10.8,,74.6,-321,-279,-36,1008.11,73.8,0
"2016-08-22 01:55:49+00",9.6,12.6,,74.8,-380,-341,-41,1008.15,73.9,0
"2016-08-22 02:00:49+00",10.2,12.2,,74.9,-402,-339,-28,1008.1,74,0
"2016-08-22 02:05:49+00",12.0,15.0,,74.9,-499,-235,-38,1008.17,73.9,0
"2016-08-22 02:10:49+00",11.9,13.9,,74.9,-531,-199,-26,1008.2,73.9,0
"2016-08-22 02:15:49+00",14.8,16.8,,74.4,-670,27,-36,1008.17,73.9,0
"2016-08-22 02:20:49+00",12.8,13.8,,73.9,-585,27,-8,1008.07,73.5,0
"2016-08-22 02:25:49+00",13.1,15.1,,73.9,-592,89,35,1008.15,73.6,0
"2016-08-22 02:30:49+00",13.3,15.3,,73.8,-560,221,19,1008.2,73.6,0
"2016-08-22 02:35:49+00",13.7,16.7,,73.8,-559,270,16,1008.2,73.7,0
"2016-08-22 02:40:49+00",10.8,11.8,,73.6,-463,175,0,1008,73.3,0
"2016-08-22 02:45:49+00",10.7,11.7,,73.7,-445,150,-11,1008.1,73.5,0
"2016-08-22 02:50:49+00",11.4,13.4,,73.8,-486,151,-20,1008.14,73.6,0
"2016-08-22 02:55:49+00",13.0,15.0,,73.8,-579,139,2,1008.17,73.4,0
"2016-08-22 03:00:49+00",13.4,14.4,,74,-598,128,28,1008.28,73.8,0
"2016-08-22 03:05:49+00",12.3,14.3,,73.9,-554,48,22,1008.32,73.9,0
"2016-08-22 03:10:49+00",14.3,16.3,,73.9,-631,154,16,1008.38,73.9,0
"2016-08-22 03:15:49+00",14.3,16.3,,73.7,-637,76,10,1008.36,73.9,0
"2016-08-22 03:20:49+00",13.1,15.1,,73.8,-577,91,-9,1008.39,74,0
"2016-08-22 03:25:49+00",12.1,14.1,,73.8,-542,43,9,1008.42,74.1,0
"2016-08-22 03:30:49+00",12.8,14.8,,73.8,-562,72,-23,1008.55,74.2,0
"2016-08-22 03:35:49+00",11.2,13.2,,74.1,-491,35,7,1008.6,74.4,0
"2016-08-22 03:40:49+00",10.6,12.6,,74.2,-458,41,-7,1008.64,74.4,0
"2016-08-22 03:45:49+00",11.7,13.7,,74.3,-513,81,-7,1008.75,74.6,0
"2016-08-22 03:50:49+00",12.6,14.6,,74.4,-549,87,-18,1008.69,74.7,0
"2016-08-22 03:55:49+00",12.8,13.8,,74.5,-556,28,-6,1008.82,74.8,0
"2016-08-22 04:00:49+00",11.7,13.7,,74.6,-515,86,18,1008.71,74.8,0
"2016-08-22 04:05:49+00",11.0,13.0,,74.9,-498,93,41,1008.88,74.9,0
"2016-08-22 04:10:49+00",12.6,14.6,,75,-529,170,10,1008.92,74.8,0
"2016-08-22 04:15:49+00",11.9,13.9,,75.2,-510,157,35,1008.89,74.8,0
"2016-08-22 04:20:49+00",13.7,15.7,,75.2,-587,186,12,1008.81,74.7,0
"2016-08-22 04:25:49+00",11.0,13.0,,75.4,-460,131,9,1008.82,74.9,0
"2016-08-22 04:30:49+00",13.1,16.1,,75.5,-567,190,31,1008.8,75,0
"2016-08-22 04:35:49+00",14.3,17.3,,75.4,-612,221,14,1008.66,74.9,0
"2016-08-22 04:40:49+00",14.3,17.3,,75.7,-615,236,-10,1008.71,74.9,0
"2016-08-22 04:45:49+00",13.3,15.3,,75.9,-542,238,29,1008.63,74.8,0
"2016-08-22 04:50:49+00",16.5,19.5,,75.9,-692,324,25,1008.63,74.7,0
"2016-08-22 04:55:49+00",17.8,20.8,,75.8,-718,384,-11,1008.64,74.8,0
"2016-08-22 05:00:49+00",19.0,21.0,,75.8,-701,520,6,1008.71,74.8,0
"2016-08-22 05:05:49+00",15.8,17.8,,75.7,-641,345,10,1008.82,75,0
"2016-08-22 05:10:49+00",15.2,18.2,,75.6,-613,331,17,1008.94,74.9,0
"2016-08-22 05:15:49+00",18.6,20.6,,75.4,-713,471,-6,1008.92,74.8,0
"2016-08-22 05:20:49+00",15.6,18.6,,75.4,-585,383,29,1008.85,74.8,0
"2016-08-22 05:25:49+00",17.2,18.2,,75.3,-633,474,34,1008.95,74.7,0
"2016-08-22 05:30:49+00",16.2,18.2,,75.2,-607,444,51,1009.01,74.7,0
"2016-08-22 05:35:49+00",19.1,22.1,,75.1,-708,516,32,1008.96,74.7,0
"2016-08-22 05:40:49+00",17.1,20.1,,75,-617,494,4,1009.06,74.6,0
"2016-08-22 05:45:49+00",17.8,21.8,,74.9,-620,522,13,1009.02,74.5,0
"2016-08-22 05:50:49+00",18.5,21.5,,74.8,-593,577,48,1009.03,74.4,0
"2016-08-22 05:55:49+00",17.3,19.3,,74.7,-494,589,53,1009.05,74.3,0
"2016-08-22 06:00:49+00",14.0,15.0,,74.7,-467,415,56,1009.12,74.3,0
"2016-08-22 06:05:49+00",14.7,16.7,,74.6,-406,514,48,1009.22,74.1,0
"2016-08-22 06:10:49+00",15.3,19.3,,74.5,-472,506,60,1009.24,74,0
"2016-08-22 06:15:49+00",17.9,20.9,,74.4,-564,579,45,1009.3,74.1,0
"2016-08-22 06:20:49+00",13.9,15.9,,74.2,-395,466,46,1009.31,74,0
"2016-08-22 06:25:49+00",17.6,20.6,,74.1,-489,607,37,1009.33,73.8,0
"2016-08-22 06:30:49+00",15.1,17.1,,74,-418,514,30,1009.5,73.7,0
"2016-08-22 06:35:49+00",15.3,17.3,,73.9,-422,545,62,1009.46,73.5,0
"2016-08-22 06:40:49+00",15.8,17.8,,73.8,-422,564,37,1009.54,73.4,0
"2016-08-22 06:45:49+00",15.9,20.9,,73.8,-453,550,48,1009.64,73.3,0
"2016-08-22 06:50:49+00",15.1,17.1,,73.8,-386,540,32,1009.74,73.2,0
"2016-08-22 06:55:49+00",16.1,19.1,,73.7,-375,606,49,1009.8,73.2,0
"2016-08-22 07:00:49+00",13.1,15.1,,73.6,-334,469,36,1009.86,73.1,0
"2016-08-22 07:05:49+00",14.6,17.6,,73.5,-385,511,30,1009.95,72.9,0
"2016-08-22 07:10:49+00",14.5,18.5,,73.4,-367,527,32,1010.01,72.8,0
"2016-08-22 07:15:49+00",11.9,15.9,,73.2,-302,447,53,1010.02,72.7,0
"2016-08-22 07:20:49+00",13.1,16.1,,73.2,-302,492,27,1010.08,72.5,0
"2016-08-22 07:25:49+00",12.4,15.4,,73.1,-348,424,33,1010.18,72.5,0
"2016-08-22 07:30:49+00",14.1,17.1,,73,-354,515,46,1010.1,72.5,0
"2016-08-22 07:35:49+00",13.8,15.8,,72.9,-383,482,31,1010.03,72.5,0
"2016-08-22 07:40:49+00",12.1,14.1,,72.8,-318,426,32,1010.07,72.4,0
"2016-08-22 07:45:49+00",16.2,19.2,,72.7,-462,561,34,1009.96,72.3,0
"2016-08-22 07:50:49+00",15.0,17.0,,72.6,-454,498,40,1009.92,72.3,0
"2016-08-22 07:55:49+00",14.5,16.5,,72.6,-430,491,43,1009.9,72.2,0
"2016-08-22 08:00:49+00",15.2,18.2,,72.5,-414,519,42,1009.96,72.1,0
"2016-08-22 08:05:49+00",17.7,19.7,,72.5,-532,590,44,1009.88,72,0
"2016-08-22 08:10:49+00",16.8,21.8,,72.5,-487,568,37,1009.9,71.9,0
"2016-08-22 08:15:49+00",15.2,17.2,,72.4,-423,538,47,1009.99,71.8,0
"2016-08-22 08:20:49+00",17.3,19.3,,72.2,-471,618,19,1009.94,71.6,0
"2016-08-22 08:25:49+00",16.7,18.7,,72,-429,611,39,1010.12,71.4,0
"2016-08-22 08:30:49+00",16.5,18.5,,71.8,-421,601,32,1010.14,71.2,0
"2016-08-22 08:35:49+00",13.6,17.6,,71.5,-321,500,36,1010.27,71.1,0
"2016-08-22 08:40:49+00",16.0,18.0,,71.5,-400,581,33,1010.29,70.9,0
"2016-08-22 08:45:49+00",14.4,16.4,,71.2,-380,514,32,1010.32,70.7,0
"2016-08-22 08:50:49+00",13.6,15.6,,71,-371,484,35,1010.38,70.6,0
"2016-08-22 08:55:49+00",13.5,17.5,,70.9,-299,511,32,1010.45,70.4,0
"2016-08-22 09:00:49+00",12.5,14.5,,70.7,-312,459,36,1010.44,70.2,0
"2016-08-22 09:05:49+00",11.4,14.4,,70.5,-268,417,26,1010.55,70,0
"2016-08-22 09:10:49+00",13.7,14.7,,70.4,-337,504,27,1010.68,69.8,0
"2016-08-22 09:15:49+00",13.9,16.9,,70.2,-358,501,35,1010.78,69.8,0
"2016-08-22 09:20:49+00",13.8,15.8,,70.2,-338,516,29,1010.82,69.7,0
"2016-08-22 09:25:49+00",11.6,13.6,,70.3,-315,416,45,1010.93,69.7,0
"2016-08-22 09:30:49+00",15.8,17.8,,70.3,-391,584,40,1010.95,69.6,0
"2016-08-22 09:35:49+00",15.3,17.3,,70.4,-447,507,44,1011.06,69.7,0
"2016-08-22 09:40:49+00",14.7,18.7,,70.4,-448,493,55,1011.09,69.8,0
"2016-08-22 09:45:49+00",16.7,17.7,,70.4,-514,537,44,1011.12,69.8,0
"2016-08-22 09:50:49+00",15.2,18.2,,70.3,-474,477,66,1011.2,69.8,0
"2016-08-22 09:55:49+00",16.5,19.5,,70.3,-520,534,67,1011.24,69.8,0
"2016-08-22 10:00:49+00",18.1,21.1,,70.3,-565,572,44,1011.4,69.7,0
"2016-08-22 10:05:49+00",18.1,21.1,,70.1,-556,589,31,1011.51,69.6,0
"2016-08-22 10:10:49+00",15.3,18.3,,69.9,-446,525,62,1011.6,69.5,0
"2016-08-22 10:15:49+00",14.5,16.5,,70,-453,472,47,1011.76,69.4,0
"2016-08-22 10:20:49+00",16.2,19.2,,69.7,-520,514,44,1011.89,69.3,0
"2016-08-22 10:25:49+00",19.8,21.8,,69.9,-636,621,40,1012,69.3,0
"2016-08-22 10:30:49+00",17.2,18.2,,69.8,-554,563,45,1012.07,69.4,0
"2016-08-22 10:35:49+00",18.0,21.0,,69.7,-555,580,40,1012.16,69.3,0
"2016-08-22 10:40:49+00",17.3,21.3,,69.6,-544,556,52,1012.16,69.3,0
"2016-08-22 10:45:49+00",17.5,20.5,,69.6,-522,582,52,1012.28,69.3,0.2
"2016-08-22 10:50:49+00",16.1,18.1,,69.6,-452,556,42,1012.33,69.5,0.2
"2016-08-22 10:55:49+00",16.3,19.3,,69.6,-503,534,72,1012.35,69.5,3
"2016-08-22 11:00:49+00",15.3,17.3,,69.6,-474,513,52,1012.41,69.7,11.6
"2016-08-22 11:05:49+00",15.5,16.5,,69.5,-414,554,42,1012.44,69.7,20.2
"2016-08-22 11:10:49+00",15.7,17.7,,69.5,-454,542,42,1012.57,69.8,31.6
"2016-08-22 11:15:49+00",15.5,20.5,,69.5,-462,518,50,1012.55,69.9,39.5
"2016-08-22 11:20:49+00",16.8,18.8,,69.5,-442,600,39,1012.63,69.9,49.3
"2016-08-22 11:25:49+00",15.8,19.8,,69.6,-421,551,65,1012.71,70.1,55.5
"2016-08-22 11:30:49+00",14.6,17.6,,69.7,-414,522,48,1012.76,70.2,53.7
"2016-08-22 11:35:49+00",14.8,16.8,,69.8,-454,508,48,1012.9,70.4,79.5
"2016-08-22 11:40:49+00",14.6,17.6,,69.7,-384,533,56,1013.06,70.5,84.4
"2016-08-22 11:45:49+00",16.9,19.9,,69.9,-468,579,48,1013.25,70.6,100.6
"2016-08-22 11:50:49+00",14.0,16.0,,70.1,-409,480,67,1013.43,70.7,109.1
"2016-08-22 11:55:49+00",18.6,20.6,,70,-550,630,42,1013.48,70.8,121.1
"2016-08-22 12:00:49+00",18.9,20.9,,70.1,-512,661,32,1013.41,70.9,132.9
"2016-08-22 12:05:49+00",18.5,21.5,,70.2,-536,617,34,1013.45,71.1,144.7
"2016-08-22 12:10:49+00",19.4,22.4,,70.1,-539,678,32,1013.56,71.1,153.8
"2016-08-22 12:15:49+00",16.8,20.8,,70.3,-517,560,67,1013.62,71.3,164.7
"2016-08-22 12:20:49+00",17.0,19.0,,70.4,-460,594,47,1013.61,71.5,173.6
"2016-08-22 12:25:49+00",18.9,21.9,,70.3,-510,677,42,1013.73,71.6,185.8
"2016-08-22 12:30:49+00",17.9,21.9,,70.5,-409,678,40,1013.76,71.8,193.5
"2016-08-22 12:35:49+00",19.2,21.2,,70.7,-387,745,38,1013.82,71.9,203.2
"2016-08-22 12:40:49+00",17.9,20.9,,70.7,-404,690,39,1013.78,72.1,212.4
"2016-08-22 12:45:49+00",14.4,17.4,,71.2,-332,543,56,1013.83,72.6,221.7
"2016-08-22 12:50:49+00",14.6,17.6,,71,-407,520,53,1013.83,72.5,230.7
"2016-08-22 12:55:49+00",15.8,17.8,,71.3,-373,589,40,1013.88,72.9,239.8
"2016-08-22 13:00:49+00",13.9,15.9,,71.2,-231,577,34,1013.94,73,248.9
"2016-08-22 13:05:49+00",15.5,17.5,,71.4,-201,648,31,1014.01,73.1,257.8
"2016-08-22 13:10:49+00",16.7,19.7,,71.6,-351,657,45,1013.98,73.3,261.4
"2016-08-22 13:15:49+00",19.4,21.4,,71.5,-281,802,28,1014.03,73.5,252.8
"2016-08-22 13:20:49+00",16.1,19.1,,71.8,-300,651,37,1014.16,73.7,276.4
"2016-08-22 13:25:49+00",16.9,19.9,,71.8,-267,693,27,1014.24,73.8,282.6
"2016-08-22 13:30:49+00",15.1,19.1,,72.1,-305,597,62,1014.34,74.1,291.9
"2016-08-22 13:35:49+00",18.6,21.6,,72.1,-380,740,26,1014.4,74.4,296.3
"2016-08-22 13:40:49+00",18.8,21.8,,72.2,-355,757,38,1014.53,74.2,289.9
"2016-08-22 13:45:49+00",15.5,21.5,,72.3,-153,663,43,1014.69,74.4,313.7
"2016-08-22 13:50:49+00",16.4,20.4,,72.8,-344,639,47,1014.76,74.9,322
"2016-08-22 13:55:49+00",17.9,20.9,,72.9,-106,786,17,1014.73,75.2,331.4
"2016-08-22 14:00:49+00",18.5,21.5,,73,-278,775,28,1014.75,75.5,338.5
"2016-08-22 14:05:49+00",15.3,19.3,,73,-193,650,39,1014.77,75.6,345.3
"2016-08-22 14:10:49+00",17.8,20.8,,73,-291,739,28,1014.92,75.6,353.3
"2016-08-22 14:15:49+00",14.2,18.2,,73,-108,608,23,1014.97,75.7,362.1
"2016-08-22 14:20:49+00",13.9,15.9,,73.4,-135,601,23,1014.92,76.1,371.2
"2016-08-22 14:25:49+00",18.4,20.4,,73.7,-402,700,37,1014.94,76.3,378.4
"2016-08-22 14:30:49+00",16.0,19.0,,73.5,-235,664,38,1015.01,76.3,386.9
"2016-08-22 14:35:49+00",14.6,16.6,,73.6,-181,623,7,1014.95,76.4,396.6
"2016-08-22 14:40:49+00",11.9,13.9,,74,-39,528,20,1014.97,76.7,402.9
"2016-08-22 14:45:49+00",17.5,19.5,,74,-366,683,39,1015.05,76.8,411.3
"2016-08-22 14:50:49+00",15.2,18.2,,74,-402,537,21,1015.1,76.4,421.6
"2016-08-22 14:55:49+00",14.4,17.4,,74.4,-233,574,52,1015.12,76.6,427.7
"2016-08-22 15:00:49+00",14.0,15.0,,74.5,-295,532,23,1015.13,77.1,436.2
"2016-08-22 15:05:49+00",16.1,18.1,,74.7,-317,626,17,1015.09,77,444.9
"2016-08-22 15:10:49+00",14.9,17.9,,74.8,-325,548,69,1015.15,77.2,451.3
"2016-08-22 15:15:49+00",18.9,20.9,,75,-470,707,55,1015.16,77.4,458.1
"2016-08-22 15:20:49+00",14.2,15.2,,75.3,-352,513,47,1015.25,77.8,463.5
"2016-08-22 15:25:49+00",17.7,19.7,,75.1,-590,549,63,1015.24,77.6,469.9
"2016-08-22 15:30:49+00",19.7,22.7,,75.2,-383,777,27,1015.38,77.6,476
"2016-08-22 15:35:49+00",18.1,24.1,,75.4,-389,704,34,1015.34,77.8,498
"2016-08-22 15:40:49+00",16.1,17.1,,75.4,-219,673,9,1015.45,77.9,490.5
"2016-08-22 15:45:49+00",17.2,20.2,,75.8,-423,634,29,1015.4,78.1,492.2
"2016-08-22 15:50:49+00",19.1,23.1,,75.7,-351,757,21,1015.48,77.9,502.1
"2016-08-22 15:55:49+00",17.4,20.4,,75.4,-438,642,27,1015.49,78.1,504.1
"2016-08-22 16:00:49+00",13.1,15.1,,75.4,-334,476,25,1015.47,78.1,535.8
"2016-08-22 16:05:49+00",17.1,19.1,,75.7,-544,527,43,1015.47,77.8,163.4
"2016-08-22 16:10:49+00",15.4,19.4,,75.7,-491,484,39,1015.52,77.6,519.8
"2016-08-22 16:15:49+00",14.8,15.8,,75.4,-419,509,31,1015.56,77.8,541.8
"2016-08-22 16:20:49+00",16.0,19.0,,75.8,-323,620,29,1015.58,78,542.5
"2016-08-22 16:25:49+00",17.2,19.2,,76.1,-491,587,73,1015.56,78.3,539.6
"2016-08-22 16:30:49+00",15.8,17.8,,76.1,-309,627,18,1015.48,78.6,512.6
"2016-08-22 16:35:49+00",15.6,17.6,,76.4,-273,629,51,1015.5,78.8,400.8
"2016-08-22 16:40:49+00",14.3,16.3,,76.6,-423,484,57,1015.56,78.9,471.1
"2016-08-22 16:45:49+00",17.5,21.5,,76.4,-559,564,52,1015.61,78.6,538
"2016-08-22 16:50:49+00",16.5,20.5,,76.6,-398,598,77,1015.5,78.5,536.5
"2016-08-22 16:55:49+00",20.5,23.5,,76.6,-594,694,64,1015.54,78.4,541.3
"2016-08-22 17:00:49+00",13.9,15.9,,76.5,-397,472,35,1015.57,78.5,536.2
"2016-08-22 17:05:49+00",13.7,14.7,,76.7,-365,496,50,1015.63,78.7,472.4
"2016-08-22 17:10:49+00",16.4,19.4,,77,-492,545,79,1015.51,78.9,534.1
"2016-08-22 17:15:49+00",16.5,18.5,,77.1,-399,612,49,1015.54,79,533.5
"2016-08-22 17:20:49+00",19.5,22.5,,77.1,-616,612,52,1015.51,79.1,529.4
"2016-08-22 17:25:49+00",18.5,20.5,,77.3,-497,677,56,1015.54,78.9,530.9
"2016-08-22 17:30:49+00",16.4,18.4,,77.6,-493,551,61,1015.51,79.3,534.3
"2016-08-22 17:35:49+00",13.3,16.3,,77.4,-254,526,53,1015.44,79.3,528.8
"2016-08-22 17:40:49+00",18.5,22.5,,77.9,-291,772,30,1015.4,79.9,523.8
"2016-08-22 17:45:49+00",14.9,16.9,,77.9,-291,591,34,1015.52,80.3,520.4
"2016-08-22 17:50:49+00",13.6,16.6,,77.7,-316,507,15,1015.62,80.5,515.4
"2016-08-22 17:55:49+00",18.0,21.0,,78,-559,583,59,1015.62,80.4,493.4
"2016-08-22 18:00:49+00",15.6,18.6,,78,-546,447,71,1015.55,80.2,524.7
"2016-08-22 18:05:49+00",15.0,18.0,,78.1,-357,565,30,1015.57,80.2,543.2
"2016-08-22 18:10:49+00",12.8,14.8,,78.3,-527,234,70,1015.63,80.4,510.9
"2016-08-22 18:15:49+00",16.6,19.6,,78.4,-525,536,60,1015.74,80.4,535.7
"2016-08-22 18:20:49+00",17.1,20.1,,78.3,-592,496,58,1015.72,80.1,217.2
"2016-08-22 18:25:49+00",17.3,19.3,,78.3,-641,471,75,1015.75,80,549.6
"2016-08-22 18:30:49+00",18.8,21.8,,78.5,-492,680,52,1015.66,80.1,519.8
"2016-08-22 18:35:49+00",18.1,21.1,,78.8,-579,592,48,1015.75,80.4,492.5
"2016-08-22 18:40:49+00",18.9,21.9,,78.5,-593,614,44,1015.81,80.3,490.6
"2016-08-22 18:45:49+00",17.5,19.5,,78.8,-379,668,32,1015.87,80.5,477.8
"2016-08-22 18:50:49+00",18.1,22.1,,79,-475,650,40,1015.74,81.2,468.9
"2016-08-22 18:55:49+00",21.0,23.0,,79,-532,772,64,1015.77,81,477.2
"2016-08-22 19:00:49+00",15.7,17.7,,78.7,-415,562,41,1015.82,81,462.8
"2016-08-22 19:05:49+00",13.2,17.2,,78.9,-363,455,60,1015.8,81,450.6
"2016-08-22 19:10:49+00",16.4,19.4,,78.5,-462,573,43,1015.8,79.9,111.7
"2016-08-22 19:15:49+00",16.4,20.4,,78.8,-532,501,51,1015.72,80.4,441.2
"2016-08-22 19:20:49+00",13.0,16.0,,79.1,-379,448,63,1015.72,80.6,449.5
"2016-08-22 19:25:49+00",14.4,16.4,,79.4,-224,588,39,1015.84,81.6,465.9
"2016-08-22 19:30:49+00",14.5,18.5,,79.4,-280,588,47,1015.76,82.2,426.2
"2016-08-22 19:35:49+00",14.9,18.9,,79.6,-537,390,80,1015.82,82.1,442.9
"2016-08-22 19:40:49+00",18.2,20.2,,79.7,-407,695,37,1015.86,82.6,435.8
"2016-08-22 19:45:49+00",16.0,18.0,,79.4,-591,416,50,1015.78,82,420.9
"2016-08-22 19:50:49+00",16.7,18.7,,79.4,-356,648,56,1015.94,81.8,409.8
"2016-08-22 19:55:49+00",15.6,17.6,,79.3,-212,654,25,1015.87,82.3,390.4
"2016-08-22 20:00:49+00",15.8,19.8,,79.3,-146,685,21,1015.84,82.5,378.8
"2016-08-22 20:05:49+00",16.6,18.6,,79.5,-541,497,68,1015.83,82.2,357.8
"2016-08-22 20:10:49+00",16.3,18.3,,79.4,-203,688,18,1015.87,81.8,307.7
"2016-08-22 20:15:49+00",18.7,21.7,,79.1,-335,777,31,1015.89,81.8,205.3
"2016-08-22 20:20:49+00",17.8,20.8,,79,-269,734,15,1015.93,81.4,69.6
"2016-08-22 20:25:49+00",14.9,15.9,,79.4,-266,616,53,1016.02,81.7,317.3
"2016-08-22 20:30:49+00",17.1,20.1,,79.6,-509,561,57,1015.92,82.1,317.2
"2016-08-22 20:35:49+00",13.5,18.5,,79.5,-263,542,33,1015.9,82.1,311.2
"2016-08-22 20:40:49+00",17.5,19.5,,79.4,-563,537,46,1015.97,81.8,232.4
"2016-08-22 20:45:49+00",16.7,19.7,,79.5,-376,653,67,1016.04,81.6,293.6
"2016-08-22 20:50:49+00",16.3,18.3,,79.5,-449,573,47,1016.04,81.8,279.9
"2016-08-22 20:55:49+00",15.3,19.3,,79.7,-462,513,46,1016.15,81.7,135.2
"2016-08-22 21:00:49+00",12.4,14.4,,79.7,-379,413,72,1016.19,81.8,241.7
"2016-08-22 21:05:49+00",18.5,23.5,,79.5,-477,676,44,1016.21,81.7,261.8
"2016-08-22 21:10:49+00",18.8,21.8,,79.3,-422,716,28,1016.25,81.8,243.4
"2016-08-22 21:15:49+00",15.8,20.8,,79.7,-352,598,69,1016.37,82,235.4
"2016-08-22 21:20:49+00",17.0,19.0,,79.7,-343,683,36,1016.42,82,226
"2016-08-22 21:25:49+00",19.1,21.1,,79.6,-479,700,41,1016.45,81.7,213.3
"2016-08-22 21:30:49+00",17.9,20.9,,79.6,-532,596,53,1016.54,81.5,204.4
"2016-08-22 21:35:49+00",16.5,19.5,,79.6,-511,541,74,1016.66,81,196.4
"2016-08-22 21:40:49+00",17.1,19.1,,79.4,-571,526,49,1016.71,80.8,91.8
"2016-08-22 21:45:49+00",15.0,19.0,,79.4,-382,553,42,1016.69,80.4,185.6
"2016-08-22 21:50:49+00",13.0,16.0,,79.4,-235,525,24,1016.74,80.9,169.9
"2016-08-22 21:55:49+00",14.0,16.0,,79.5,-215,584,34,1016.8,81.3,165
"2016-08-22 22:00:49+00",18.8,21.8,,79.3,-502,672,31,1016.78,80.9,149
"2016-08-22 22:05:49+00",16.7,19.7,,79.3,-400,633,28,1016.81,80.6,130.4
"2016-08-22 22:10:49+00",16.6,19.6,,79.2,-432,614,51,1016.83,80.4,122.7
"2016-08-22 22:15:49+00",14.6,16.6,,79.1,-287,579,25,1016.97,80.4,111.5
"2016-08-22 22:20:49+00",14.0,16.0,,79,-312,536,32,1017,80.3,95.4
"2016-08-22 22:25:49+00",16.2,18.2,,78.9,-471,557,27,1017.08,80.1,85.4
"2016-08-22 22:30:49+00",16.3,18.3,,78.7,-277,669,27,1017.18,79.8,75.7
"2016-08-22 22:35:49+00",15.8,18.8,,78.6,-318,625,36,1017.19,79.7,65.8
"2016-08-22 22:40:49+00",14.9,16.9,,78.5,-324,579,38,1017.21,79.6,56.3
"2016-08-22 22:45:49+00",12.4,14.4,,78.4,-284,479,42,1017.32,79.4,46.7
"2016-08-22 22:50:49+00",14.6,16.6,,78.3,-271,588,29,1017.42,79.3,35.6
"2016-08-22 22:55:49+00",12.2,15.2,,78.1,-258,472,38,1017.5,79.1,26.4
"2016-08-22 23:00:49+00",12.6,15.6,,77.9,-168,527,28,1017.6,78.8,16.6
"2016-08-22 23:05:49+00",11.5,13.5,,77.6,-195,469,24,1017.58,78.5,9
"2016-08-22 23:10:49+00",12.9,14.9,,77.5,-230,522,21,1017.74,78.3,1.8
"2016-08-22 23:15:49+00",11.9,13.9,,77.2,-200,482,19,1017.77,77.9,0.9
"2016-08-22 23:20:49+00",10.1,12.1,,76.7,-114,425,17,1017.97,77.5,0
"2016-08-22 23:25:49+00",9.3,10.3,,76.6,-90,392,15,1018.13,77,0
"2016-08-22 23:30:49+00",10.2,11.2,,76.3,-86,427,10,1018.18,76.4,0
"2016-08-22 23:35:49+00",12.8,16.8,,76.1,-116,540,8,1018.27,75.9,0
"2016-08-22 23:40:49+00",11.9,13.9,,76,-129,504,6,1018.47,75.5,0
"2016-08-22 23:45:49+00",9.3,11.3,,75.6,-26,404,14,1018.5,75,0
"2016-08-22 23:50:49+00",9.9,11.9,,75.4,-74,424,24,1018.67,74.5,0
"2016-08-22 23:55:49+00",10.6,13.6,,75.1,-136,443,15,1018.74,74.1,0
